Airfield :
LOGIN :

Register | Disclaimer

   EN    FR    IT 

 










Legend :    VFR   Marginal VFR   IFR   Intensive IFR   Very Intensive IFR
Visi :
Ceiling :
>= 8 km
>= 3000ft
5 to 8 km
1000 to 3000 ft
1500m to 5 km
500 to 1000 ft
800 to 1500m
200 to 500 ft
< 800m
< 200 ft
Symbols :   Thunderstorms  Fog  Heavy snow  Heavy precipitations  Wind > 20 kt
SIGMETs :     Misc.  Thunderstorms  Icing  Turbulence  Mountain Waves  Volcanic Ashes







- Airport Elevation : 598 ft
- IATA code : BQH
- Download approach charts


EGKB - Biggin Hill

CURRENT METAR :
  • 221420Z 06012KT 030V100 9999 SCT030 04/M03 Q1022

EXPIRED METARs :
  • 221350Z 07011KT 030V100 9999 SCT030 04/M01 Q1023
  • 221320Z 07011KT 030V100 9999 SCT026 04/M01 Q1023
  • 221250Z 07011G21KT 040V110 9999 SCT026 03/M02 Q1023
  • 221220Z 06012KT 030V090 9000 SCT026 03/M02 Q1023
  • 221150Z 08012KT 050V120 9000 SCT025 03/M03 Q1023

TAF TAF EGKB
Valid from the 22 at 12:00 until the 22 at 21:00 UTC


221100Z 2212/2221 07009KT 9999 FEW040
TEMPO 2212/2221 8000
No reported NOTAMs for that airfield.



MET'MAP, your aeronautical weather chart ! - Copyright ORBIFLY December 2007 - Disclaimer

ORBIFLY MET'MAP TEAM :

Programming & Development : Alexandra Zaïnal
Concept & Development : Baudouin d'Aumeries
Co-Development & Prog : Marc-Olivier Méhu
Technical & hardware support : Manuel Goepfert

Contact : metmap@orbifly.com




SOURCES & CREDITS :

   NOAA